Overview Statistics Trail Chart Weather Telemetry Raw packets
 

This is the latest recevied weather packets stored in our database for station/object KB7K. If no packets are shown the sender has not sent any weather packets the latest 10 day(s).

<< 22 23 24 25 26 27 28 >>
Time Temp. Humidity Pressure Rain* Wind** Luminosity Snow
1787903478 23.89° C 28% 983.6 hPa 0 mm - - -
1787902475 24.44° C 28% 983.8 hPa 0 mm - - -
1787901472 24.44° C 27% 983.6 hPa 0 mm - - -
1787900469 24.44° C 27% 983.6 hPa 0 mm - - -
1787899465 25° C 27% 983.4 hPa 0 mm - - -
1787898463 25° C 26% 983.5 hPa 0 mm - - -
1787897459 25° C 26% 983.4 hPa 0 mm - - -
1787895453 25.56° C 26% 983.7 hPa 0 mm - - -
1787894450 25.56° C 25% 983.6 hPa 0 mm - - -
1787893447 26.11° C 25% 983.4 hPa 0 mm - - -
1787892444 26.11° C 24% 983.2 hPa 0 mm - - -
1787891441 26.11° C 24% 983.1 hPa 0 mm - - -
1787890438 26.67° C 24% 982.8 hPa 0 mm - - -
1787889435 26.67° C 23% 982.3 hPa 0 mm - - -
1787888432 27.22° C 23% 982.1 hPa 0 mm - - -
1787887429 27.22° C 22% 982 hPa 0 mm - - -
1787886426 27.78° C 22% 982 hPa 0 mm - - -
1787885423 28.33° C 21% 981.8 hPa 0 mm - - -
1787883417 28.89° C 21% 981.6 hPa 0 mm - - -
1787882414 29.44° C 20% 981.4 hPa 0 mm - - -
1787881411 30° C 20% 981.4 hPa 0 mm - - -
1787879405 30.56° C 18% 981.3 hPa 0 mm - - -
1787878402 31.11° C 18% 981.2 hPa 0 mm - - -
1787876396 32.22° C 18% 981.2 hPa 0 mm - - -
1787875392 32.22° C 19% 981.3 hPa 0 mm - - -

* Rain since midnight (hover to see other rain measurements)
** Current wind speed in m/s (hover to see current wind gust speed)